N5VKM Weather Reports


Display with metric or nautical units.
time (UTC)temp
F
wind
direction
speed
MPH
gust
MPH
rain 1hr
in
rain 24hr
in
rain mn
in
humidity
%
barometer
mb
20260509101534 68 334 0.0 0.0 0.00 0.21 0.01 92 1008.9
20260509101041 68 334 0.0 0.0 0.00 0.21 0.01 92 1008.9
20260509100537 68 334 0.0 0.0 0.00 0.21 0.01 92 1008.7
20260509100046 68 334 0.0 0.0 0.00 0.21 0.01 92 1008.6
20260509095533 68 334 0.0 0.0 0.00 0.21 0.01 92 1008.5
20260509095047 68 333 0.0 0.0 0.00 0.21 0.01 92 1008.6
20260509094538 68 333 0.0 0.0 0.00 0.21 0.01 91 1008.6
20260509094029 69 334 0.0 0.0 0.00 0.21 0.01 92 1008.6
20260509093539 69 333 0.0 0.0 0.00 0.21 0.01 92 1008.3
20260509093050 69 335 0.0 0.0 0.00 0.21 0.01 92 1008.4
20260509092539 69 333 0.0 0.0 0.00 0.21 0.01 91 1008.6
20260509092036 69 333 0.0 0.0 0.00 0.21 0.01 92 1008.5
20260509091606 69 333 0.0 0.0 0.00 0.21 0.01 91 1008.7
20260509091038 69 333 0.0 0.0 0.00 0.21 0.01 91 1008.8
20260509090556 69 333 0.0 0.0 0.00 0.21 0.01 91 1009.0
20260509090045 69 332 0.0 0.0 0.00 0.21 0.01 91 1009.1
20260509085535 69 333 0.0 0.0 0.00 0.21 0.01 91 1009.1
20260509085046 69 332 0.0 0.0 0.00 0.21 0.01 91 1009.1
20260509084536 69 332 0.0 0.0 0.00 0.21 0.01 91 1008.8
20260509084106 69 333 0.0 0.0 0.00 0.21 0.01 91 1008.8
20260509083536 69 333 0.0 0.0 0.00 0.21 0.01 91 1008.6
20260509083043 69 333 0.0 0.0 0.00 0.21 0.01 91 1008.4
20260509082533 69 333 0.0 0.0 0.00 0.21 0.01 91 1008.4
20260509082041 69 333 0.0 0.0 0.00 0.21 0.01 91 1008.4
20260509081553 69 333 0.0 0.0 0.00 0.21 0.01 91 1008.7
20260509081028 69 333 0.0 0.0 0.00 0.21 0.01 91 1009.0
20260509080543 69 333 0.0 0.0 0.00 0.21 0.01 91 1009.3
20260509080035 69 333 0.0 0.0 0.00 0.21 0.01 91 1009.3
20260509075548 69 333 0.0 0.0 0.00 0.21 0.01 91 1009.4
20260509075055 69 333 0.0 0.0 0.00 0.21 0.01 91 1009.6
20260509074546 68 333 0.0 0.0 0.00 0.21 0.01 91 1009.6
20260509074035 68 334 0.0 0.0 0.00 0.21 0.01 91 1009.6
20260509073542 68 334 0.0 0.0 0.00 0.21 0.01 91 1009.8
20260509073034 68 333 0.0 0.0 0.00 0.21 0.01 90 1010.1
20260509072542 68 333 0.0 0.0 0.00 0.21 0.01 90 1010.3
20260509072033 68 333 0.0 0.0 0.00 0.21 0.01 90 1010.3
20260509071541 68 333 0.0 0.0 0.00 0.21 0.01 90 1010.4
20260509071032 69 333 0.0 0.0 0.00 0.21 0.01 90 1010.4
20260509070539 69 333 0.0 0.0 0.00 0.21 0.01 90 1010.4
20260509070047 69 333 0.0 0.0 0.00 0.21 0.01 90 1010.7
20260509065538 69 333 0.0 0.0 0.00 0.21 0.01 90 1010.9
20260509065028 69 333 0.0 0.0 0.00 0.21 0.01 91 1011.0
20260509064559 68 332 0.0 0.0 0.00 0.21 0.01 91 1011.0
20260509064047 68 332 0.0 0.0 0.00 0.21 0.01 91 1011.1
20260509063539 68 332 0.0 0.0 0.00 0.21 0.01 91 1010.9
20260509063047 68 332 0.0 0.0 0.00 0.21 0.01 91 1011.0
20260509062539 68 335 0.0 0.0 0.00 0.21 0.01 91 1011.1
20260509062031 68 333 0.0 0.0 0.00 0.21 0.01 91 1010.9
20260509061558 68 335 0.0 0.0 0.00 0.21 0.01 91 1010.3
20260509061046 68 335 0.0 0.0 0.01 0.21 0.01 91 1010.2
20260509060538 68 335 0.0 0.0 0.01 0.21 0.01 91 1009.7
20260509060046 68 335 0.0 0.0 0.01 0.21 0.01 91 1009.6
20260509055539 67 335 0.0 0.0 0.01 0.21 0.01 91 1009.4
20260509055031 67 335 0.0 0.0 0.01 0.21 0.01 91 1009.6
20260509054537 67 335 0.0 0.0 0.01 0.21 0.01 91 1009.8
20260509054030 67 335 0.0 0.0 0.01 0.21 0.01 91 1010.1
20260509053606 67 335 0.0 0.0 0.01 0.21 0.01 91 1010.1
20260509053036 67 335 0.0 0.0 0.01 0.21 0.01 90 1010.2
20260509052546 67 336 0.0 0.0 0.01 0.21 0.01 90 1010.4
20260509052040 67 336 0.0 0.0 0.01 0.21 0.01 90 1010.6
20260509051529 67 336 0.0 0.0 0.01 0.21 0.01 90 1010.5
20260509051039 68 336 0.0 0.0 0.00 0.20 0.00 90 1010.8
20260509050530 68 336 0.0 0.0 0.00 0.20 0.00 90 1010.6
20260509050041 68 336 0.0 0.0 0.00 0.20 0.00 89 1010.8
20260509045532 68 336 0.0 0.0 0.00 0.20 0.20 89 1010.8
20260509045039 68 336 0.0 0.0 0.00 0.20 0.20 89 1010.7
20260509044548 68 335 0.0 0.0 0.00 0.20 0.20 89 1010.5
20260509044041 69 335 0.0 0.0 0.00 0.20 0.20 88 1010.4
20260509043529 69 335 0.0 0.0 0.00 0.20 0.20 88 1010.5
20260509043043 69 335 0.0 0.0 0.00 0.20 0.20 88 1010.7
20260509042534 69 335 0.0 0.0 0.00 0.20 0.20 88 1010.4
20260509042107 69 335 0.0 0.0 0.00 0.20 0.20 88 1010.3
20260509041604 69 335 0.0 0.0 0.00 0.20 0.20 88 1010.1
20260509041034 69 335 0.0 0.0 0.00 0.20 0.20 88 1010.0
20260509040541 69 334 0.0 0.0 0.00 0.20 0.20 88 1010.0
20260509040049 69 334 0.0 0.0 0.00 0.20 0.20 88 1010.1
20260509035600 69 334 0.0 0.0 0.00 0.20 0.20 88 1010.0
20260509035046 69 334 0.0 0.0 0.00 0.20 0.20 87 1010.0
20260509034533 69 333 0.0 0.0 0.00 0.20 0.20 87 1009.6
20260509034027 69 333 0.0 0.0 0.00 0.20 0.20 87 1009.9
20260509033546 69 335 0.0 0.0 0.00 0.20 0.20 87 1010.3
20260509033033 70 336 0.0 0.0 0.00 0.20 0.20 86 1009.8
20260509032540 70 336 0.0 0.0 0.00 0.20 0.20 85 1009.8
20260509032032 70 333 0.0 0.0 0.00 0.20 0.20 84 1009.6
20260509031541 71 334 0.0 0.0 0.00 0.20 0.20 83 1009.9
20260509031055 71 334 0.0 0.0 0.00 0.20 0.20 82 1009.6
20260509030545 71 334 0.0 0.0 0.00 0.20 0.20 81 1009.8
20260509030035 71 335 0.0 0.0 0.00 0.20 0.20 81 1009.9
20260509025544 71 332 0.0 0.0 0.00 0.20 0.20 81 1010.3
20260509025032 71 333 0.0 0.0 0.00 0.20 0.20 81 1010.5
20260509024605 71 334 0.0 0.0 0.00 0.20 0.20 81 1010.5
20260509024035 71 334 0.0 0.0 0.00 0.20 0.20 81 1010.4
20260509023544 71 334 0.0 0.0 0.00 0.20 0.20 81 1010.2
20260509023030 71 334 0.0 0.0 0.00 0.20 0.20 81 1010.1
20260509022544 71 334 0.0 0.0 0.00 0.20 0.20 81 1009.9
20260509022035 71 334 0.0 0.0 0.00 0.20 0.20 81 1009.8
20260509021545 71 334 0.0 0.0 0.00 0.20 0.20 80 1009.8
20260509021035 71 333 0.0 0.0 0.00 0.20 0.20 80 1009.6
20260509020533 71 333 0.0 0.0 0.00 0.20 0.20 79 1009.3
20260509020107 71 334 0.0 0.0 0.00 0.20 0.20 79 1009.1
20260509015540 72 334 0.0 0.0 0.00 0.20 0.20 79 1009.0
20260509015048 72 333 0.0 0.0 0.00 0.20 0.20 78 1008.9
20260509014534 72 334 0.0 0.0 0.00 0.20 0.20 78 1008.7
20260509014042 72 334 0.0 0.0 0.00 0.20 0.20 78 1008.7
20260509013553 72 334 0.0 0.0 0.00 0.20 0.20 78 1008.8
20260509013041 72 335 0.0 0.0 0.00 0.20 0.20 77 1008.9
20260509012528 72 334 0.0 0.0 0.00 0.20 0.20 77 1008.8
20260509012041 72 334 0.0 0.0 0.00 0.20 0.20 76 1008.7
20260509011558 73 335 0.0 0.0 0.00 0.20 0.20 76 1008.7
20260509011046 73 334 0.0 0.0 0.00 0.20 0.20 76 1008.7
20260509010544 73 334 0.0 0.0 0.00 0.20 0.20 75 1008.7
20260509010032 73 334 0.0 0.0 0.00 0.20 0.20 75 1008.8
20260509005539 73 333 0.0 0.0 0.01 0.20 0.20 75 1008.7
20260509005034 74 334 0.0 0.0 0.01 0.20 0.20 75 1008.7
20260509004548 74 334 0.0 0.0 0.01 0.20 0.20 75 1008.7
20260509004040 74 335 0.0 0.0 0.01 0.20 0.20 75 1008.6
20260509003531 74 336 0.0 0.0 0.01 0.20 0.20 75 1008.6
20260509003040 74 334 0.0 0.0 0.01 0.20 0.20 75 1008.5
20260509002535 74 333 0.0 0.0 0.01 0.20 0.20 75 1008.3
20260509002043 74 333 0.0 0.0 0.01 0.20 0.20 75 1008.3
20260509001531 74 334 0.0 0.0 0.01 0.20 0.20 75 1008.2
20260509001045 74 335 0.0 0.0 0.01 0.20 0.20 75 1008.2
20260509000603 75 334 0.0 0.0 0.01 0.20 0.20 74 1008.2
20260509000052 75 334 0.0 0.0 0.01 0.20 0.20 74 1008.3
20260508235545 75 334 0.0 0.0 0.00 0.19 0.19 73 1008.3
20260508235032 75 334 0.0 0.0 0.00 0.19 0.19 73 1008.3
20260508234541 76 334 0.0 0.0 0.00 0.19 0.19 73 1008.3
20260508234049 76 334 0.0 0.0 0.00 0.19 0.19 72 1008.3
20260508233559 76 333 0.0 0.0 0.00 0.19 0.19 72 1008.4
20260508233049 76 336 0.0 0.0 0.00 0.19 0.19 71 1008.3
20260508232546 76 334 0.0 0.0 0.00 0.19 0.19 71 1008.4
20260508232042 76 333 0.0 0.0 0.00 0.19 0.19 71 1008.4
20260508231553 77 333 0.0 0.0 0.00 0.19 0.19 70 1008.5
20260508231039 77 333 0.0 0.0 0.00 0.19 0.19 70 1008.5
20260508230531 77 333 0.0 0.0 0.00 0.19 0.19 70 1008.6
20260508230044 77 333 0.0 0.0 0.00 0.19 0.19 69 1008.6
20260508225538 78 333 0.0 0.0 0.00 0.19 0.19 69 1008.5
20260508225046 78 334 0.0 0.0 0.00 0.19 0.19 68 1008.5
20260508224534 78 333 0.0 0.0 0.00 0.19 0.19 67 1008.4
20260508224045 78 333 0.0 0.0 0.00 0.19 0.19 66 1008.5
20260508223559 78 334 0.0 0.0 0.00 0.19 0.19 66 1008.5
20260508223032 78 334 0.0 0.0 0.00 0.19 0.19 66 1008.5
20260508222540 78 333 0.0 0.0 0.00 0.19 0.19 66 1008.6
20260508222028 78 333 0.0 0.0 0.00 0.19 0.19 64 1008.6
20260508221539 79 333 0.0 0.0 0.00 0.19 0.19 65 1008.6
20260508221030 78 335 0.0 0.0 0.00 0.19 0.19 65 1008.6
20260508220540 78 335 0.0 0.0 0.00 0.19 0.19 65 1008.5
20260508220028 79 333 0.0 0.0 0.00 0.19 0.19 65 1008.4
20260508215542 79 335 0.0 0.0 0.00 0.19 0.19 64 1008.5
20260508215031 79 332 0.0 0.0 0.00 0.19 0.19 66 1008.4
20260508214543 79 333 0.0 0.0 0.00 0.19 0.19 66 1008.5
20260508214057 79 333 0.0 0.0 0.00 0.19 0.19 66 1008.5
20260508213547 79 333 0.0 0.0 0.00 0.19 0.19 65 1008.4
20260508213035 80 334 0.0 0.0 0.00 0.19 0.19 66 1008.6
20260508212542 80 331 0.0 0.0 0.00 0.19 0.19 66 1008.8
20260508212034 79 335 0.0 0.0 0.00 0.19 0.19 66 1009.0
20260508211542 79 333 0.0 0.0 0.00 0.19 0.19 66 1009.1
20260508211033 79 334 0.0 0.0 0.00 0.19 0.19 66 1009.1
20260508210541 79 333 0.0 0.0 0.00 0.19 0.19 65 1009.1
20260508210034 79 333 0.0 0.0 0.00 0.19 0.19 66 1009.3
20260508205545 78 333 0.0 0.0 0.00 0.19 0.19 65 1009.5
20260508205033 79 333 0.0 0.0 0.00 0.19 0.19 65 1009.7
20260508204546 79 333 0.0 0.0 0.00 0.19 0.19 64 1009.8
20260508204034 79 333 0.0 0.0 0.00 0.19 0.19 64 1009.9
20260508203541 79 333 0.0 0.0 0.00 0.19 0.19 64 1009.9
20260508203033 79 335 0.0 0.0 0.00 0.19 0.19 65 1009.9
20260508202540 79 332 0.0 0.0 0.00 0.19 0.19 65 1010.0
20260508202032 78 336 0.0 0.0 0.00 0.19 0.19 64 1010.2
20260508201603 78 334 0.0 0.0 0.00 0.19 0.19 65 1010.5
20260508201039 77 333 0.0 0.0 0.00 0.19 0.19 65 1010.5
20260508200531 77 334 0.0 0.0 0.00 0.19 0.19 64 1010.6
20260508200041 77 334 0.0 0.0 0.00 0.19 0.19 64 1010.6
20260508195533 77 334 0.0 0.0 0.00 0.19 0.19 65 1010.7
20260508195040 77 334 0.0 0.0 0.00 0.19 0.19 66 1010.7
20260508194533 76 335 0.0 0.0 0.00 0.19 0.19 66 1010.8
20260508194103 77 334 0.0 0.0 0.00 0.19 0.19 65 1010.8
20260508193532 77 334 0.0 0.0 0.00 0.19 0.19 64 1010.8
20260508193034 78 335 0.0 0.0 0.00 0.19 0.19 64 1010.8
20260508192601 78 335 0.0 0.0 0.00 0.19 0.19 63 1010.7
20260508192046 78 335 0.0 0.0 0.00 0.19 0.19 65 1010.8
20260508191553 77 333 0.0 0.0 0.00 0.19 0.19 65 1010.7
20260508191027 77 333 0.0 0.0 0.00 0.19 0.19 64 1010.8
20260508190554 78 333 0.0 0.0 0.00 0.19 0.19 62 1010.8
20260508190030 78 333 0.0 0.0 0.00 0.19 0.19 64 1010.9
20260508185538 78 334 0.0 0.0 0.00 0.19 0.19 63 1010.9
20260508185031 78 335 0.0 0.0 0.00 0.19 0.19 65 1011.0
20260508184539 77 333 0.0 0.0 0.00 0.19 0.19 65 1011.0
20260508184046 77 333 0.0 0.0 0.00 0.19 0.19 67 1011.0
20260508183537 76 335 0.0 0.0 0.00 0.19 0.19 66 1011.2
20260508183031 76 333 0.0 0.0 0.00 0.19 0.19 66 1011.3
20260508182605 76 333 0.0 0.0 0.00 0.19 0.19 69 1011.4
20260508182102 75 333 0.0 0.0 0.00 0.19 0.19 67 1011.6
20260508181530 75 334 0.0 0.0 0.00 0.19 0.19 69 1011.8
20260508181041 75 333 0.0 0.0 0.00 0.19 0.19 68 1011.7
20260508180529 74 333 0.0 0.0 0.00 0.19 0.19 67 1011.8
20260508180105 74 333 0.0 0.0 0.00 0.19 0.19 66 1011.9
20260508175554 74 333 0.0 0.0 0.00 0.19 0.19 69 1012.1
20260508175029 73 333 0.0 0.0 0.00 0.19 0.19 69 1012.2
20260508174542 73 332 0.0 0.0 0.00 0.19 0.19 72 1012.3
20260508174035 73 331 0.0 0.0 0.00 0.19 0.19 72 1012.4
20260508173542 73 334 0.0 0.0 0.00 0.19 0.19 72 1012.7
20260508173035 72 333 0.0 0.0 0.00 0.19 0.19 74 1012.8
20260508172548 72 333 0.0 0.0 0.00 0.19 0.19 75 1012.9
20260508172036 71 333 0.0 0.0 0.00 0.19 0.19 75 1013.0
20260508171547 71 335 0.0 0.0 0.00 0.19 0.19 75 1013.0
20260508171038 71 334 0.0 0.0 0.00 0.19 0.19 75 1013.1
20260508170530 70 336 0.0 0.0 0.00 0.19 0.19 78 1013.3
20260508170039 70 335 0.0 0.0 0.00 0.19 0.19 78 1013.4
20260508165556 69 336 0.0 0.0 0.00 0.19 0.19 78 1013.5
20260508165044 69 336 0.0 0.0 0.00 0.19 0.19 80 1013.6
20260508164538 68 336 0.0 0.0 0.00 0.19 0.19 83 1013.7
20260508164045 67 334 0.0 0.0 0.01 0.19 0.19 84 1013.8
20260508163536 67 333 0.0 0.0 0.01 0.19 0.19 85 1013.9
20260508163106 66 336 0.0 0.0 0.01 0.19 0.19 86 1013.9